EW5009 Weather Reports


Display with metric or nautical units.
time (UTC)temp
F
wind
direction
speed
MPH
gust
MPH
rain 1hr
in
rain 24hr
in
rain mn
in
humidity
%
barometer
mb
20180721054623 66 312 0.0 5.0 0.00 0.00 0.00 79 1012.2
20180721053124 67 330 2.0 6.0 0.00 0.00 0.00 79 1012.3
20180721051619 67 340 3.0 6.0 0.00 0.00 0.00 78 1012.3
20180721050120 67 301 1.0 5.0 0.00 0.00 0.00 78 1012.7
20180721044616 67 300 0.0 4.0 0.00 0.00 0.00 77 1013.1
20180721043112 68 338 3.0 6.0 0.00 0.00 0.00 77 1013.1
20180721041609 68 293 0.0 7.0 0.00 0.00 0.00 77 1013.3
20180721040111 68 219 0.0 0.0 0.00 0.00 0.00 77 1013.4
20180721034607 68 255 0.0 5.0 0.00 0.00 0.00 76 1013.4
20180721033109 68 344 1.0 8.0 0.00 0.00 0.00 76 1013.3
20180721031607 68 360 2.0 6.0 0.00 0.00 0.00 75 1013.0
20180721030104 68 334 1.0 8.0 0.00 0.00 0.00 75 1013.1
20180721024604 69 342 2.0 11.0 0.00 0.00 0.00 75 1013.3
20180721023103 69 330 2.0 11.0 0.00 0.00 0.00 74 1013.3
20180721021608 69 331 1.0 9.0 0.00 0.00 0.00 74 1013.3
20180721020106 69 331 3.0 8.0 0.00 0.00 0.00 73 1013.2
20180721014602 69 323 3.0 10.0 0.00 0.00 0.00 73 1013.1
20180721013104 69 342 3.0 8.0 0.00 0.00 0.00 72 1012.9
20180721011601 70 339 0.0 3.0 0.00 0.00 0.00 73 1013.0
20180721010103 70 313 0.0 8.0 0.00 0.00 0.00 71 1012.9
20180721004600 71 336 1.0 6.0 0.00 0.00 0.00 71 1012.7
20180721003059 71 346 1.0 5.0 0.00 0.00 0.00 70 1012.6
20180721001559 71 329 0.0 9.0 0.00 0.00 0.00 69 1012.9
20180721000058 72 336 0.0 4.0 0.00 0.00 0.00 69 1013.0
20180720234556 72 235 0.0 5.0 0.00 0.00 0.00 68 1013.2
20180720233055 72 43 1.0 6.0 0.00 0.00 0.00 67 1013.2
20180720231558 73 355 2.0 6.0 0.00 0.00 0.00 67 1013.3
20180720230054 73 240 1.0 9.0 0.00 0.00 0.00 67 1013.4
20180720224554 74 345 1.0 5.0 0.00 0.00 0.00 65 1013.5
20180720223056 74 311 0.0 8.0 0.00 0.00 0.00 65 1013.4
20180720221554 75 279 3.0 9.0 0.00 0.00 0.00 63 1013.4
20180720220051 75 322 1.0 11.0 0.00 0.00 0.00 63 1013.2
20180720214654 76 180 4.0 14.0 0.00 0.00 0.00 62 1013.1
20180720213050 76 313 5.0 12.0 0.00 0.00 0.00 64 1013.1
20180720211549 76 261 3.0 11.0 0.00 0.00 0.00 64 1013.1
20180720210052 76 340 3.0 10.0 0.00 0.00 0.00 64 1013.2
20180720204547 77 286 2.0 12.0 0.00 0.00 0.00 61 1013.2
20180720203047 77 12 4.0 11.0 0.00 0.00 0.00 62 1013.1
20180720201548 77 319 4.0 10.0 0.00 0.00 0.00 61 1013.0
20180720200043 79 221 4.0 15.0 0.00 0.00 0.00 60 1013.4
20180720194545 79 222 4.0 9.0 0.00 0.00 0.00 58 1013.5
20180720193041 79 78 4.0 15.0 0.00 0.00 0.00 58 1013.7
20180720191538 79 332 3.0 10.0 0.00 0.00 0.00 60 1014.0
20180720190038 79 271 7.0 13.0 0.00 0.00 0.00 58 1014.3
20180720184533 79 319 5.0 15.0 0.00 0.00 0.00 60 1014.3
20180720183031 79 11 3.0 14.0 0.00 0.00 0.00 62 1014.7
20180720181530 79 220 7.0 15.0 0.00 0.00 0.00 64 1014.7
20180720180030 78 234 3.0 10.0 0.00 0.00 0.00 63 1015.0
20180720174528 78 240 2.0 14.0 0.00 0.00 0.00 63 1015.2
20180720173025 79 198 3.0 11.0 0.00 0.00 0.00 60 1015.2
20180720171526 79 46 2.0 12.0 0.00 0.00 0.00 62 1015.3
20180720170020 78 175 4.0 13.0 0.00 0.00 0.00 65 1015.4
20180720164517 77 327 5.0 9.0 0.00 0.00 0.00 66 1015.8
20180720163016 77 212 2.0 7.0 0.00 0.00 0.00 68 1016.1
20180720161519 77 260 3.0 12.0 0.00 0.00 0.00 64 1016.0
20180720160019 77 284 2.0 9.0 0.00 0.00 0.00 64 1016.1
20180720154516 77 313 3.0 9.0 0.00 0.00 0.00 66 1016.1
20180720153010 77 263 1.0 6.0 0.00 0.00 0.00 67 1016.1
20180720151506 76 223 0.0 1.0 0.00 0.00 0.00 68 1016.2
20180720150010 75 233 0.0 12.0 0.00 0.00 0.00 67 1016.2
20180720144502 74 245 0.0 8.0 0.00 0.00 0.00 68 1016.3
20180720143000 73 199 0.0 0.0 0.00 0.00 0.00 70 1016.3
20180720141454 72 319 0.0 0.0 0.00 0.00 0.00 71 1016.3
20180720135951 70 316 0.0 0.0 0.00 0.00 0.00 79 1016.4
20180720134444 68 273 0.0 0.0 0.00 0.00 0.00 80 1016.6
20180720132941 66 278 0.0 0.0 0.00 0.00 0.00 85 1016.9
20180720131438 65 219 0.0 0.0 0.00 0.00 0.00 85 1016.9
20180720125936 64 9 0.0 0.0 0.00 0.00 0.00 88 1016.9
20180720124429 62 271 0.0 0.0 0.00 0.00 0.00 92 1016.9
20180720122926 61 317 0.0 0.0 0.00 0.00 0.00 94 1017.0
20180720121427 60 327 0.0 0.0 0.00 0.00 0.00 95 1016.9
20180720115925 59 23 0.0 0.0 0.00 0.00 0.00 96 1016.9
20180720114425 58 26 0.0 0.0 0.00 0.00 0.00 95 1016.9
20180720112924 57 26 0.0 0.0 0.00 0.00 0.00 95 1017.1
20180720111424 57 24 0.0 0.0 0.00 0.00 0.00 94 1017.0
20180720105923 57 24 0.0 0.0 0.00 0.00 0.00 94 1016.9
20180720104424 57 23 0.0 0.0 0.00 0.00 0.00 93 1016.8
20180720102923 57 23 0.0 0.0 0.00 0.00 0.00 93 1016.9
20180720101419 57 23 0.0 0.0 0.00 0.00 0.00 92 1016.7
20180720095917 57 23 0.0 0.0 0.00 0.00 0.00 92 1016.5
20180720094420 58 23 0.0 0.0 0.00 0.00 0.00 92 1016.6
20180720092915 58 23 0.0 0.0 0.00 0.00 0.00 92 1016.3
20180720091414 58 23 0.0 0.0 0.00 0.00 0.00 91 1016.5
20180720085912 58 23 0.0 0.0 0.00 0.00 0.00 91 1016.5
20180720084412 58 23 0.0 0.0 0.00 0.00 0.00 91 1016.5
20180720082912 58 23 0.0 0.0 0.00 0.00 0.00 91 1016.7
20180720081409 59 23 0.0 0.0 0.00 0.00 0.00 91 1016.8
20180720075909 59 23 0.0 0.0 0.00 0.00 0.00 92 1016.7
20180720074406 59 23 0.0 0.0 0.00 0.00 0.00 92 1016.7
20180720072904 59 23 0.0 0.0 0.00 0.00 0.00 92 1016.7
20180720071407 59 23 0.0 0.0 0.00 0.00 0.00 92 1016.7
20180720065906 59 23 0.0 0.0 0.00 0.00 0.00 91 1016.7
20180720064405 59 23 0.0 0.0 0.00 0.00 0.00 91 1016.7
20180720062900 59 23 0.0 0.0 0.00 0.00 0.00 91 1016.7
20180720061359 59 23 0.0 0.0 0.00 0.00 0.00 90 1016.8
20180720055857 60 22 0.0 0.0 0.00 0.00 0.00 90 1016.8